TIANMU-1 10

Last updated on Sat Aug 15 2026 00:02:41 GMT+0000 (Coordinated Universal Time)

1 57402U 23101D 26226.61241564 .00003242 00000+0 11272-3 0 9998 2 57402 97.2577 276.2084 0002646 296.2129 63.8840 15.30429059170572
UTC large
Height (km)
Speed (km/s)
/
Latitude / Longitude
Inclination (degrees)
Orbital Period (minutes)
Azimuth
Elevation
Range (km)
Doppler Factor

Next 0 passes for location: London (51.5072 / 0.1276)

No passes found over London.
TIANMU-1 10